GW2155 Weather Reports


Display with metric or nautical units.
time (UTC)temp
F
wind
direction
speed
MPH
gust
MPH
rain 1hr
in
rain 24hr
in
rain mn
in
humidity
%
barometer
mb
20260505035005 50 137 0.0 0.0 0.00 0.05 0.05 93 996.8
20260505034501 50 144 0.0 0.0 0.00 0.05 0.05 92 997.2
20260505033959 50 159 0.0 0.0 0.05 0.05 0.05 91 997.2
20260505033455 50 160 0.0 0.0 0.05 0.05 0.05 90 997.0
20260505032954 50 150 0.0 0.0 0.07 0.04 0.04 89 996.9
20260505032451 50 147 0.0 0.0 0.12 0.04 0.04 87 997.0
20260505031947 51 122 0.0 1.0 0.05 0.03 0.03 85 997.0
20260505031444 51 136 0.0 1.0 0.07 0.02 0.02 84 997.0
20260505030941 51 100 1.0 2.0 0.07 0.02 0.02 84 997.2
20260505030437 51 130 1.0 1.0 0.00 0.01 0.01 83 997.0
20260505025932 51 153 0.0 0.0 0.05 0.01 0.01 83 996.6
20260505025429 52 185 1.0 2.0 0.05 0.01 0.01 81 996.1
20260505024928 52 171 1.0 1.0 0.05 0.01 0.01 79 996.3
20260505024425 53 149 1.0 2.0 0.00 0.00 0.00 75 996.1
20260505023922 53 165 1.0 2.0 0.00 0.00 0.00 72 996.2
20260505023419 53 144 0.0 0.0 0.00 0.00 0.00 70 996.1
20260505022917 53 131 0.0 0.0 0.00 0.00 0.00 69 995.8
20260505022414 53 135 0.0 0.0 0.00 0.00 0.00 69 995.7
20260505021911 53 155 0.0 0.0 0.00 0.00 0.00 69 995.5
20260505021407 53 147 2.0 2.0 0.00 0.00 0.00 69 995.8
20260505020903 53 169 2.0 3.0 0.00 0.00 0.00 69 995.8
20260505020359 54 126 3.0 3.0 0.00 0.00 0.00 68 996.1
20260505015856 54 144 2.0 3.0 0.00 0.00 0.00 68 995.9
20260505015353 54 102 4.0 6.0 0.00 0.00 0.00 66 995.9
20260505014850 54 135 5.0 8.0 0.00 0.00 0.00 67 995.7
20260505014347 54 132 6.0 8.0 0.00 0.00 0.00 68 995.8
20260505013844 54 79 7.0 9.0 0.00 0.00 0.00 69 995.5
20260505013341 54 149 4.0 4.0 0.00 0.00 0.00 69 995.5
20260505012839 54 77 5.0 6.0 0.00 0.00 0.00 69 995.9
20260505012337 54 130 4.0 4.0 0.00 0.00 0.00 69 995.7
20260505011833 54 140 6.0 9.0 0.00 0.00 0.00 69 995.7
20260505011330 54 137 9.0 13.0 0.00 0.00 0.00 69 995.5
20260505010826 54 132 4.0 4.0 0.00 0.00 0.00 70 995.8
20260505010322 55 97 8.0 10.0 0.00 0.00 0.00 72 995.7
20260505005818 57 82 6.0 7.0 0.00 0.00 0.00 66 995.8
20260505005315 59 75 3.0 6.0 0.00 0.00 0.00 54 995.2
20260505004813 59 149 4.0 7.0 0.00 0.00 0.00 53 995.4
20260505004308 59 140 4.0 6.0 0.00 0.00 0.00 54 995.2
20260505003806 59 143 5.0 7.0 0.00 0.00 0.00 55 995.2
20260505003303 59 149 5.0 6.0 0.00 0.00 0.00 55 995.2
20260505002759 59 130 6.0 7.0 0.00 0.00 0.00 54 995.4
20260505002257 59 138 7.0 9.0 0.00 0.00 0.00 53 995.2
20260505001755 59 116 5.0 6.0 0.00 0.00 0.00 53 995.1
20260505001252 59 135 3.0 4.0 0.00 0.00 0.00 54 995.1
20260505000749 59 124 4.0 6.0 0.00 0.00 0.00 57 995.0
20260505000247 59 162 5.0 7.0 0.00 0.00 0.00 56 995.2
20260504235743 59 147 4.0 6.0 0.00 0.00 0.00 57 995.0
20260504235239 59 132 2.0 3.0 0.00 0.00 0.00 56 995.1
20260504234736 58 159 4.0 4.0 0.00 0.00 0.00 58 994.8
20260504234234 58 149 7.0 9.0 0.00 0.00 0.00 57 994.8
20260504233730 57 135 7.0 8.0 0.00 0.00 0.00 60 995.1
20260504233226 57 140 7.0 8.0 0.00 0.00 0.00 63 995.2
20260504232723 57 76 6.0 7.0 0.00 0.00 0.00 62 995.2
20260504232220 57 142 4.0 6.0 0.00 0.00 0.00 63 995.1
20260504231716 59 82 5.0 10.0 0.00 0.00 0.00 62 995.1
20260504231213 62 93 5.0 7.0 0.00 0.00 0.00 52 995.0
20260504230709 63 96 4.0 6.0 0.00 0.00 0.00 43 994.6
20260504230208 63 114 3.0 4.0 0.00 0.00 0.00 42 994.5
20260504225706 63 82 2.0 4.0 0.00 0.00 0.00 41 994.3
20260504225202 63 135 4.0 4.0 0.00 0.00 0.00 40 994.3
20260504224659 63 123 5.0 7.0 0.00 0.00 0.00 40 993.8
20260504224156 64 152 6.0 8.0 0.00 0.00 0.00 39 994.0
20260504223653 64 159 6.0 8.0 0.00 0.00 0.00 39 994.0
20260504223148 63 112 6.0 8.0 0.00 0.00 0.00 39 993.7
20260504222646 64 141 3.0 4.0 0.00 0.00 0.00 41 993.9
20260504222142 64 149 3.0 3.0 0.00 0.00 0.00 41 993.7
20260504221640 64 122 3.0 3.0 0.00 0.00 0.00 40 993.3
20260504221137 63 153 5.0 6.0 0.00 0.00 0.00 41 993.6
20260504220633 63 120 5.0 6.0 0.00 0.00 0.00 42 993.2
20260504220131 63 134 3.0 4.0 0.00 0.00 0.00 44 993.3
20260504215627 63 205 2.0 3.0 0.00 0.00 0.00 41 993.5
20260504215125 62 111 4.0 6.0 0.00 0.00 0.00 45 993.5
20260504214620 61 191 5.0 7.0 0.00 0.00 0.00 48 993.7
20260504214117 61 110 11.0 14.0 0.00 0.00 0.00 50 994.1
20260504213613 62 115 9.0 13.0 0.00 0.00 0.00 48 994.3
20260504213110 63 88 5.0 6.0 0.00 0.00 0.00 42 994.6
20260504212606 62 112 4.0 7.0 0.00 0.00 0.00 40 994.7
20260504212104 62 136 4.0 4.0 0.00 0.00 0.00 41 995.0
20260504211601 64 143 13.0 16.0 0.00 0.00 0.00 38 995.0
20260504211057 64 161 1.0 2.0 0.00 0.00 0.00 36 994.6
20260504210555 64 128 2.0 4.0 0.00 0.00 0.00 35 994.6
20260504210051 64 92 7.0 10.0 0.00 0.00 0.00 37 994.4
20260504205549 65 135 9.0 14.0 0.00 0.00 0.00 39 994.3
20260504205047 65 163 7.0 11.0 0.00 0.00 0.00 33 994.0
20260504204544 66 115 15.0 19.0 0.00 0.00 0.00 33 993.9
20260504204044 66 148 12.0 17.0 0.00 0.00 0.00 32 993.5
20260504203541 67 136 12.0 16.0 0.00 0.00 0.00 31 993.1
20260504203038 67 141 15.0 19.0 0.00 0.00 0.00 29 992.8
20260504202533 67 143 13.0 17.0 0.00 0.00 0.00 29 993.0
20260504202031 68 123 18.0 25.0 0.00 0.00 0.00 30 992.8
20260504201527 69 153 18.0 25.0 0.00 0.00 0.00 29 992.9
20260504201026 71 142 12.0 14.0 0.00 0.00 0.00 25 993.0
20260504200521 72 102 8.0 13.0 0.00 0.00 0.00 24 993.2
20260504200019 73 143 8.0 13.0 0.00 0.00 0.00 22 993.0
20260504195515 73 96 7.0 10.0 0.00 0.00 0.00 23 993.2
20260504195011 73 159 10.0 13.0 0.00 0.00 0.00 24 993.2
20260504194508 73 136 6.0 8.0 0.00 0.00 0.00 23 993.0
20260504194003 74 112 3.0 4.0 0.00 0.00 0.00 24 993.0
20260504193500 76 162 12.0 16.0 0.00 0.00 0.00 24 992.8
20260504192959 76 138 7.0 10.0 0.00 0.00 0.00 23 992.6
20260504192456 75 132 5.0 6.0 0.00 0.00 0.00 23 992.8
20260504191955 74 103 4.0 6.0 0.00 0.00 0.00 23 992.9
20260504191452 74 140 7.0 9.0 0.00 0.00 0.00 23 992.9
20260504190947 74 132 2.0 2.0 0.00 0.00 0.00 22 992.8
20260504190444 74 150 1.0 2.0 0.00 0.00 0.00 22 992.9
20260504185940 74 149 2.0 4.0 0.00 0.00 0.00 23 992.8
20260504185438 75 98 4.0 4.0 0.00 0.00 0.00 23 993.1
20260504184934 75 244 2.0 2.0 0.00 0.00 0.00 22 993.0
20260504184429 74 157 1.0 2.0 0.00 0.00 0.00 22 993.1
20260504183925 74 165 3.0 6.0 0.00 0.00 0.00 23 993.0
20260504183423 73 146 2.0 3.0 0.00 0.00 0.00 24 993.1
20260504182921 73 149 2.0 3.0 0.00 0.00 0.00 24 993.2
20260504182417 72 148 2.0 3.0 0.00 0.00 0.00 26 993.5
20260504181914 72 324 4.0 6.0 0.00 0.00 0.00 26 993.2
20260504181412 73 86 6.0 9.0 0.00 0.00 0.00 26 993.5
20260504180910 72 42 3.0 3.0 0.00 0.00 0.00 27 993.5
20260504180409 72 166 1.0 2.0 0.00 0.00 0.00 25 993.7
20260504175907 71 347 1.0 1.0 0.00 0.00 0.00 27 993.6
20260504175403 71 3 3.0 3.0 0.00 0.00 0.00 27 993.9
20260504174901 71 181 3.0 6.0 0.00 0.00 0.00 27 993.7
20260504174358 72 145 5.0 8.0 0.00 0.00 0.00 26 993.9
20260504173855 71 112 2.0 7.0 0.00 0.00 0.00 26 993.8
20260504173352 71 301 5.0 6.0 0.00 0.00 0.00 27 993.9
20260504172849 70 111 2.0 3.0 0.00 0.00 0.00 27 994.0
20260504172346 70 19 2.0 8.0 0.00 0.00 0.00 29 994.1
20260504171841 70 94 2.0 4.0 0.00 0.00 0.00 28 994.1
20260504171339 69 95 2.0 2.0 0.00 0.00 0.00 29 994.0
20260504170836 68 143 0.0 0.0 0.00 0.00 0.00 30 993.9
20260504170332 68 91 4.0 4.0 0.00 0.00 0.00 29 994.3
20260504160251 66 153 2.0 2.0 0.00 0.00 0.00 31 994.3
20260504150716 57 163 0.0 0.0 0.00 0.00 0.00 43 994.7
20260504150213 56 163 0.0 0.0 0.00 0.00 0.00 43 994.6
20260504141142 52 131 1.0 1.0 0.00 0.00 0.00 51 994.6
20260504140639 51 164 0.0 0.0 0.00 0.00 0.00 51 994.6
20260504140134 51 158 0.0 0.0 0.00 0.00 0.00 52 995.1
20260504130603 44 143 0.0 0.0 0.00 0.00 0.00 68 994.8
20260504110451 44 162 0.0 0.0 0.00 0.00 0.00 55 995.3
20260504100413 44 152 0.0 0.0 0.00 0.00 0.00 64 995.4
20260504081806 50 169 0.0 0.0 0.00 0.00 0.00 56 996.0
20260504081303 51 117 1.0 1.0 0.00 0.00 0.00 48 995.9
20260504080759 51 134 0.0 1.0 0.00 0.00 0.00 47 996.1
20260504080255 51 122 1.0 1.0 0.00 0.00 0.00 47 995.9
20260504070223 54 143 5.0 6.0 0.00 0.00 0.00 42 996.6
20260504060143 55 145 4.0 4.0 0.00 0.00 0.00 40 996.5
20260504050612 57 162 5.0 7.0 0.00 0.00 0.00 37 996.5
20260504050109 58 142 3.0 3.0 0.00 0.00 0.00 36 996.3
20260504045606 58 140 2.0 2.0 0.00 0.00 0.00 36 996.3
20260504045100 59 128 3.0 3.0 0.00 0.00 0.00 35 996.2
20260504044559 60 141 4.0 6.0 0.00 0.00 0.00 33 996.3
20260504044055 60 124 7.0 8.0 0.00 0.00 0.00 31 996.3
20260504043553 61 139 4.0 4.0 0.00 0.00 0.00 31 996.3
20260504043049 60 130 3.0 3.0 0.00 0.00 0.00 31 996.7
20260504042547 60 146 0.0 1.0 0.00 0.00 0.00 31 996.5
20260504042043 60 92 1.0 2.0 0.00 0.00 0.00 32 996.3
20260504041539 61 156 6.0 8.0 0.00 0.00 0.00 33 996.3
20260504041035 61 147 0.0 0.0 0.00 0.00 0.00 32 996.1
20260504040533 60 156 0.0 0.0 0.00 0.00 0.00 32 996.3
20260504040030 60 156 0.0 0.0 0.00 0.00 0.00 34 996.3
20260504035526 60 195 0.0 0.0 0.00 0.00 0.00 35 996.3